Tracking 19717 objects as of 25-Jun-2019
HD Live streaming from Space Station
objects crossing your sky now

FENGYUN 1C DEB

Track FENGYUN 1C DEB now!
10-day predictions


NORAD ID: 30411
Int'l Code: 1999-025AEA
Perigee: 816.1 km
Apogee: 1,030.7 km
Inclination: 98.5 °
Period: 103.3 minutes
Semi major axis: 7294 km
RCS: 0.03 m2 (small)
Launch date: May 10, 1999
Source: People's Republic of China (PRC)
Launch site: Taiyaun Space Center, China (TSC)

Note: This is SATELLITE DEBRIS
aabbcc
Your satellite tracking list
Your tracking list is empty




NASA's NSSDC Master Catalog

Two Line Element Set (TLE):
1 30411U 99025AEA 19175.09884030  .00000858  00000-0  62624-3 0  9993
2 30411  98.5381 215.8839 0147083 222.6566 136.3100 13.93539098629879
Source of the keplerian elements: AFSPC